Back to catalog

STARLINK-35079

AliveCommunicationsVLEO
NORAD 65649·PAYLOAD·🇺🇸 United States

Launched Sep 18, 2025 from Cape Canaveral Space Force Station

Loading…

Next Passes (next 24 hours)

TLE

FreshSource: CelesTrak SupGP

Epoch: Sep 14, 2026, 21:29 UTC

1 65649C 25210AD  26257.89562500 -.00044883  00000+0 -13258-2 0  2573
2 65649  53.1575 147.5621 0001017  96.6087  91.0770 15.34418973    19

Track STARLINK-35079 in real time with AllMySat

Download on the App Store